Regional Weather Roundup
Issued by NWS

Home | Current Version | Previous Version | Text Only | Print | Product List | Glossary Off
Versions: 1 2 3 4 5 6 7 8 9 10 11 12 13 14 15 16 17 18 19 20 21 22 23 24 25 26 27 28 29 30 31 32 33 34 35 36 37 38 39 40 41 42 43 44 45 46 47 48 49 50

000
ASUS45 KSLC 310710
RWRUT

UTAH REGIONAL WEATHER ROUNDUP
NATIONAL WEATHER SERVICE SALT LAKE CITY UT
100 AM MDT THU JUL 31 2014

UTZ001>011-023>025-310800-

NORTHERN UTAH

CITY           SKY/WX    TMP DP  RH WIND       PRES   REMARKS
HILL AFB       CLEAR     67  52  60 E14       30.22S
LOGAN          CLEAR     68  50  52 S17       30.24S
OGDEN          CLEAR     67  51  56 NW3       30.19S
PROVO AIRPORT  CLEAR     66  55  68 CALM      30.21S
SALT LAKE CITY PTCLDY    68  56  65 N6        30.17F
VERNAL         CLOUDY    64  49  57 N7        30.27F
WENDOVER       MOCLDY    73  54  49 SW6       30.21F
HEBER CITY     MOCLDY    59  52  77 E3        30.30S
WEST JORDAN    CLEAR     70  57  64 NW7       30.21S

$$

UTZ012>022-026-027-310800-

SOUTHERN UTAH

CITY           SKY/WX    TMP DP  RH WIND       PRES   REMARKS
BRYCE CANYON   CLEAR     53  47  79 W6        30.39S
CEDAR CITY     CLOUDY    68  54  60 W7        30.26R
MILFORD        CLOUDY    75  50  41 NW6       30.21R
MOAB/CYNLANDS  CLEAR     72  57  59 VRB3      30.14F
PRICE          CLEAR     66  52  60 N14       30.27S
ST GEORGE      SUNNY     88  48  25 SW5       30.01R
KANAB            N/A     72  50  46 N6        30.19F

$$

REGIONAL REPORTS     COLORADO/ARIZONA

CITY           SKY/WX    TMP DP  RH WIND       PRES   REMARKS
CRAIG, CO      PTCLDY    55  54  96 NE5       30.31S
GRAND JUNCTION PTCLDY    64  60  87 CALM      30.19S
RIFLE          PTCLDY    62  56  80 CALM      30.25S
MONTROSE       PTCLDY    66  55  67 SE7       30.27S
CORTEZ         CLEAR     61  53  75 NE8       30.22F
PAGE, AZ       PTCLDY    84  48  28 NW7       30.08F
GRAND CANYON   CLEAR     59  48  67 CALM      30.30S
KINGMAN        PTCLDY    79  50  36 VRB3      30.03F
FLAGSTAFF      CLEAR     66  45  46 CALM      30.34F

$$

REGIONAL REPORTS    NEVADA/IDAHO/WYOMING

CITY           SKY/WX    TMP DP  RH WIND       PRES   REMARKS
LAS VEGAS, NV  PTCLDY    94  46  19 VRB3      29.90S HX  90
ELY            CLOUDY    66  46  48 S9        30.30F
ELKO           CLOUDY    72  47  40 SE7       30.22F
POCATELLO, ID  CLEAR     65  50  58 CALM      30.24S
BURLEY         MOCLDY    65  53  65 SE8       30.19R
EVANSTON, WY   CLEAR     56  49  77 NE8       30.40F
ROCK SPRINGS   CLEAR     52  45  77 SW3       30.39S

$$



USA.gov is the U.S. government's official web portal to all federal, state and local government web resources and services.